Date String (YYYY-MM-DD hh:mm:ss) UTC,Instrument flags,absolute air pressure of the measurement (hPa),sample flow rate (lpm),inlet stack bypass flow (lpm),air temperature of the measurement (°C),ambient temperature measured by the external sensor (°C),aerosol sample conditioner tube jacket temperature (°C),OPC LED temperature (°C),internal box temperature (°C),relative humidity of the measurement (%),span deviation,mass concentration of particles derived from Lorenz-Mie calculation of OPC scattering (μg/m³),mass concentration of particles derived from Lorenz-Mie calculation of OPC scattering (μg/m³),mass concentration of particles derived from Lorenz-Mie calculation of OPC scattering (μg/m³)
DateTimeUTC,F1_M11,P_M11,Q1_M11,Q2_M11,T1_M11,T2_M11,T3_M11,T4_M11,T5_M11,U1_M11,ZSPAN_M11,X2_M11,X0_M11,X1_M11
2023-11-24 13:00:00,SystemResetWarning,0834.2,4.99,000.00,019.1,018.2,000.0,027.4,020.1,12.9,0000.0,0002.88,0004.87,0002.20
2023-11-24 13:01:00,SystemResetWarning,0834.2,5.01,000.00,019.0,018.2,000.0,027.4,020.2,12.9,0000.0,0002.84,0004.78,0002.20
2023-11-24 13:02:00,SystemResetWarning,0834.2,5.01,000.00,019.0,018.2,000.0,027.4,020.2,13.0,0000.0,0002.84,0004.78,0002.20
2023-11-24 13:03:00,SystemResetWarning,0834.3,5.00,000.00,019.0,018.2,000.0,027.4,020.2,13.0,0000.0,0002.80,0004.55,0002.20
2023-11-24 13:04:00,SystemResetWarning,0834.4,4.99,000.00,019.0,018.1,000.0,027.4,020.1,13.0,0000.0,0002.79,0004.93,0002.21
2023-11-24 13:05:00,SystemResetWarning,0834.3,4.99,000.00,019.0,018.1,000.0,027.4,020.1,13.0,0000.0,0002.75,0005.00,0002.20
2023-11-24 13:06:00,SystemResetWarning,0834.2,5.01,000.00,019.0,018.1,000.0,027.3,020.1,13.0,0000.0,0002.76,0006.26,0002.21
2023-11-24 13:07:00,SystemResetWarning,0834.3,5.01,000.00,019.0,018.1,000.0,027.3,020.1,13.0,0000.0,0002.75,0006.34,0002.22
2023-11-24 13:08:00,SystemResetWarning,0834.4,5.00,000.00,019.0,018.1,000.0,027.3,020.1,13.0,0000.0,0002.74,0006.22,0002.22
2023-11-24 13:09:00,SystemResetWarning,0834.2,4.99,000.00,019.0,018.1,000.0,027.3,020.0,13.1,0000.0,0002.74,0006.15,0002.24
2023-11-24 13:10:00,SystemResetWarning,0834.2,5.00,000.00,018.9,018.0,000.0,027.3,020.0,13.1,0000.0,0002.80,0006.30,0002.26
2023-11-24 13:11:00,SystemResetWarning,0834.4,4.99,000.00,018.9,018.0,000.0,027.3,020.0,13.1,0000.0,0002.86,0006.42,0002.27
2023-11-24 13:12:00,SystemResetWarning,0834.7,5.01,000.00,018.9,018.0,000.0,027.3,020.0,13.1,0000.0,0002.92,0006.50,0002.29
2023-11-24 13:13:00,SystemResetWarning,0834.3,5.00,000.00,018.9,018.0,000.0,027.3,020.0,13.1,0000.0,0002.96,0006.57,0002.29
2023-11-24 13:14:00,SystemResetWarning,0834.2,5.00,000.00,018.9,018.0,000.0,027.3,020.1,13.1,0000.0,0003.05,0006.77,0002.30
2023-11-24 13:15:00,SystemResetWarning,0834.4,5.01,000.00,019.0,018.1,000.0,027.2,020.4,13.1,0000.0,0003.11,0006.36,0002.31
2023-11-24 13:16:00,SystemResetWarning,0834.5,5.00,000.00,019.1,018.8,000.0,027.3,020.9,13.0,0000.0,0003.14,0006.90,0002.33
2023-11-24 13:17:00,SystemResetWarning,0834.5,5.00,000.00,019.2,019.2,000.0,027.3,021.0,12.9,0000.0,0003.16,0006.27,0002.34
2023-11-24 13:18:00,SystemResetWarning,0834.5,4.99,000.00,019.2,019.1,000.0,027.3,020.7,12.9,0000.0,0003.15,0005.60,0002.34
2023-11-24 13:19:00,SystemResetWarning,0834.7,4.99,000.00,019.2,019.0,000.0,027.4,020.6,12.9,0000.0,0003.16,0005.63,0002.33
2023-11-24 13:20:00,SystemResetWarning,0834.5,5.00,000.00,019.2,018.9,000.0,027.4,020.6,12.9,0000.0,0003.17,0005.75,0002.33
2023-11-24 13:21:00,SystemResetWarning,0834.2,5.01,000.00,019.2,018.8,000.0,027.4,020.4,12.9,0000.0,0003.15,0005.80,0002.31
2023-11-24 13:22:00,SystemResetWarning,0834.2,5.00,000.00,019.2,018.7,000.0,027.4,020.4,12.9,0000.0,0003.12,0005.66,0002.29
2023-11-24 13:23:00,SystemResetWarning,0834.2,5.00,000.00,019.2,018.6,000.0,027.4,020.4,12.9,0000.0,0003.10,0005.56,0002.27
2023-11-24 13:24:00,SystemResetWarning,0834.2,5.00,000.00,019.1,018.5,000.0,027.4,020.3,12.9,0000.0,0003.07,0005.76,0002.26
2023-11-24 13:25:00,SystemResetWarning,0834.2,4.99,000.00,019.1,018.4,000.0,027.4,020.3,12.9,0000.0,0003.05,0005.91,0002.25
2023-11-24 13:26:00,SystemResetWarning,0834.2,4.99,000.00,019.1,018.4,000.0,027.4,020.3,12.9,0000.0,0003.01,0006.32,0002.24
2023-11-24 13:27:00,SystemResetWarning,0834.2,4.99,000.00,019.1,018.3,000.0,027.4,020.2,12.9,0000.0,0002.98,0005.93,0002.24
2023-11-24 13:28:00,SystemResetWarning,0834.2,5.01,000.00,019.1,018.3,000.0,027.4,020.2,12.9,0000.0,0002.95,0005.54,0002.23
2023-11-24 13:29:00,SystemResetWarning,0834.2,5.01,000.00,019.1,018.2,000.0,027.4,020.2,12.8,0000.0,0002.92,0005.37,0002.22
2023-11-24 13:30:00,SystemResetWarning,0834.2,5.00,000.00,019.0,018.2,000.0,027.4,020.2,12.8,0000.0,0002.90,0005.37,0002.23
2023-11-24 13:31:00,SystemResetWarning,0834.2,5.00,000.00,019.0,018.2,000.0,027.3,020.2,12.8,0000.0,0002.89,0005.48,0002.23
2023-11-24 13:32:00,SystemResetWarning,0834.3,4.99,000.00,019.0,018.1,000.0,027.3,020.1,12.8,0000.0,0002.84,0005.27,0002.23
2023-11-24 13:33:00,SystemResetWarning,0834.2,4.99,000.00,019.0,018.1,000.0,027.3,020.1,12.8,0000.0,0002.87,0005.38,0002.24
2023-11-24 13:34:00,SystemResetWarning,0834.4,4.99,000.00,019.0,018.1,000.0,027.3,020.1,12.9,0000.0,0002.92,0005.53,0002.25
2023-11-24 13:35:00,SystemResetWarning,0834.4,4.99,000.00,018.9,018.0,000.0,027.3,020.1,12.9,0000.0,0002.96,0005.51,0002.28
2023-11-24 13:36:00,SystemResetWarning,0834.3,5.00,000.00,018.9,018.0,000.0,027.3,020.1,12.8,0000.0,0002.99,0005.36,0002.31
2023-11-24 13:37:00,SystemResetWarning,0834.3,5.00,000.00,018.9,018.0,000.0,027.3,020.0,12.9,0000.0,0002.99,0004.89,0002.34
2023-11-24 13:38:00,SystemResetWarning,0834.4,5.01,000.00,018.9,018.0,000.0,027.3,020.1,12.9,0000.0,0002.99,0004.71,0002.34
2023-11-24 13:39:00,SystemResetWarning,0834.6,5.01,000.00,019.0,018.1,000.0,027.3,020.4,12.8,0000.0,0002.99,0004.83,0002.34
2023-11-24 13:40:00,SystemResetWarning,0834.5,4.99,000.00,019.1,018.8,000.0,027.3,020.9,12.8,0000.0,0002.95,0004.77,0002.33
2023-11-24 13:41:00,SystemResetWarning,0834.6,5.00,000.00,019.2,019.2,000.0,027.3,021.0,12.7,0000.0,0002.92,0004.69,0002.31
2023-11-24 13:42:00,SystemResetWarning,0834.6,4.99,000.00,019.2,019.1,000.0,027.3,020.7,12.6,0000.0,0002.86,0004.38,0002.29
2023-11-24 13:43:00,SystemResetWarning,0834.5,5.00,000.00,019.2,019.0,000.0,027.4,020.6,12.6,0000.0,0002.86,0004.38,0002.28
2023-11-24 13:44:00,SystemResetWarning,0834.4,5.01,000.00,019.2,018.9,000.0,027.4,020.5,12.7,0000.0,0002.80,0004.21,0002.26
2023-11-24 13:45:00,SystemResetWarning,0834.5,5.01,000.00,019.2,018.7,000.0,027.4,020.4,12.7,0000.0,0002.77,0004.13,0002.23
2023-11-24 13:46:00,SystemResetWarning,0834.4,5.00,000.00,019.2,018.6,000.0,027.4,020.4,12.7,0000.0,0002.73,0003.96,0002.20
2023-11-24 13:47:00,SystemResetWarning,0834.4,5.00,000.00,019.1,018.5,000.0,027.4,020.3,12.7,0000.0,0002.66,0003.89,0002.17
2023-11-24 13:48:00,SystemResetWarning,0834.7,5.00,000.00,019.1,018.5,000.0,027.4,020.3,12.7,0000.0,0002.61,0003.83,0002.13
2023-11-24 13:49:00,SystemResetWarning,0834.3,5.00,000.00,019.1,018.4,000.0,027.4,020.2,12.6,0000.0,0002.61,0003.81,0002.09
2023-11-24 13:50:00,SystemResetWarning,0834.3,5.00,000.00,019.1,018.3,000.0,027.4,020.2,12.6,0000.0,0002.61,0003.81,0002.09
2023-11-24 13:51:00,SystemResetWarning,0834.4,5.00,000.00,019.0,018.3,000.0,027.4,020.2,12.6,0000.0,0002.65,0004.41,0002.10
2023-11-24 13:52:00,SystemResetWarning,0834.6,5.00,000.00,019.0,018.2,000.0,027.3,020.1,12.6,0000.0,0002.68,0005.78,0002.09
2023-11-24 13:53:00,SystemResetWarning,0834.4,5.00,000.00,019.0,018.1,000.0,027.3,020.1,12.6,0000.0,0002.67,0005.99,0002.08
2023-11-24 13:54:00,SystemResetWarning,0834.3,5.01,000.00,019.0,018.1,000.0,027.3,020.1,12.6,0000.0,0002.68,0006.01,0002.07
2023-11-24 13:55:00,SystemResetWarning,0834.3,5.00,000.00,018.9,018.1,000.0,027.3,020.1,12.6,0000.0,0002.74,0006.16,0002.07
2023-11-24 13:56:00,SystemResetWarning,0834.3,5.00,000.00,018.9,018.0,000.0,027.3,020.0,12.6,0000.0,0002.72,0006.35,0002.07
2023-11-24 13:57:00,SystemResetWarning,0834.2,5.01,000.00,018.9,018.1,000.0,027.3,020.4,12.6,0000.0,0002.65,0006.53,0002.06
2023-11-24 13:58:00,SystemResetWarning,0834.4,5.00,000.00,019.1,018.8,000.0,027.3,020.9,12.5,0000.0,0002.64,0006.40,0002.05
2023-11-24 13:59:00,SystemResetWarning,0834.3,5.00,000.00,019.2,019.2,000.0,027.3,021.0,12.5,0000.0,0002.64,0006.40,0002.05
